Home   Weather   Prince George   Past weeks
Flag for Canada

Past Weather in Prince George, British Columbia, Canada — Yesterday and Last 2 Weeks

Now
41 °F

Overcast.


Feels Like: 36 °F
Forecast: 44 / 27 °F
Wind: 7 mph from West

Location: Prince George

Current Time: Apr 10, 2020 at 2:45:37 am

Latest Report: Apr 10, 2020 at 2:00 am


Visibility: 9 mi

Pressure: 30.10 "Hg (28.06 "Hg at 573m altitude)

Humidity: 66%

Dew Point: 30 °F

Location of Prince GeorgeLocation

Past Weather in Prince George — Graph

°F

Prince George Temperature Yesterday

Maximum temperature yesterday: 48 °F (at 2:00 pm)
Minimum temperature yesterday: 37 °F (at 5:00 am)
Average temperature yesterday: 43 °F

High & Low Weather Summary for the Past Weeks

 TemperatureHumidityPressure
High48 °F (Apr 9, 2:00 pm)100% (Mar 26, 5:00 pm)30.48 "Hg (Mar 26, 5:00 pm)
Low-2 °F (Apr 4, 7:00 am)24% (Apr 4, 6:00 pm)29.53 "Hg (Mar 28, 5:00 pm)
Average26 °F71%29.94 "Hg
* Reported Mar 26 1:00 am — Apr 10 1:00 am, Prince George. Weather by CustomWeather, © 2020

Note: Actual official high and low records may vary slightly from our data, if they occured in-between our weather recording intervals... More about our weather records

Prince George Weather History for the Previous 24 Hours

Scroll right to see more
 ConditionsComfort  
Time TempWeatherWind HumidityBarometerVisibility
1:00 am
Fri, Apr 10
39 °FPassing clouds.8 mph70%30.10 "Hg9 mi
12:00 am41 °FPassing clouds.9 mph66%30.08 "Hg9 mi
11:00 pm
Thu, Apr 9
41 °FPassing clouds.7 mph66%30.07 "Hg9 mi
10:00 pm43 °FPassing clouds.9 mph61%30.07 "Hg9 mi
9:00 pm43 °FOvercast.2 mph61%30.06 "Hg9 mi
8:00 pm46 °FOvercast.6 mph53%30.03 "Hg9 mi
7:00 pm48 °FOvercast.8 mph50%30.03 "Hg9 mi
6:00 pm48 °FPartly sunny.15 mph50%30.03 "Hg9 mi
5:00 pm48 °FPartly sunny.10 mph50%30.03 "Hg9 mi
4:00 pm48 °FOvercast.12 mph50%30.03 "Hg9 mi
3:00 pm48 °FPartly sunny.8 mph46%30.03 "Hg9 mi
2:00 pm48 °FScattered clouds.15 mph43%30.05 "Hg9 mi
1:00 pm45 °FSunny.15 mph49%30.07 "Hg9 mi
12:00 pm45 °FPassing clouds.14 mph49%30.09 "Hg9 mi
11:00 am43 °FPartly sunny.14 mph49%30.11 "Hg9 mi
10:00 am43 °FPassing clouds.14 mph46%30.11 "Hg9 mi
9:00 am39 °FPassing clouds.12 mph56%30.12 "Hg9 mi
8:15 am41 °FOvercast.13 mph53%30.12 "Hg9 mi
8:01 am41 °FLight rain. More clouds than sun.13 mph53%30.13 "Hg9 mi
7:00 am37 °FOvercast.6 mph60%30.15 "Hg9 mi
6:26 am41 °FOvercast.6 mph49%30.14 "Hg9 mi
6:12 am39 °FLight rain. Overcast.7 mph52%30.13 "Hg9 mi
5:00 am37 °FMostly cloudy.7 mph60%30.13 "Hg9 mi
4:00 am39 °FMostly cloudy.7 mph52%30.14 "Hg9 mi
3:00 am39 °FOvercast.7 mph52%30.14 "Hg9 mi
2:00 am39 °FMostly cloudy.10 mph56%30.16 "Hg9 mi
Weather by CustomWeather, © 2020

See weather overview

Advertising